Location: Sungai Jaoh
(2.9167°N, 113.9167°E)
Time: 14:48:26
(UTC+00:00)

Meteor PRIRODA - Pass Details

Date: 30 November 2020
Orbit: 489 x 510 km, 97.6° (Epoch: 25 January)

Event Time Altitude Azimuth Distance (km) Brightness Sun altitude
Rises 21:43:07 0° 357° (N) 2,601 7.0 -8.1°
Reaches altitude 10° 21:45:19 10° 348° (NNW) 1,716 6.0 -7.6°
Maximum altitude 21:48:42 35° 282° (WNW) 837 4.3 -6.8°
Drops below altitude 10° 21:52:05 10° 215° (SW) 1,713 6.2 -6.0°
Sets 21:54:17 0° 206° (SSW) 2,595 7.2 -5.5°
